Torna al catalogo

SL-12 DEB

AttivoHEO
NORAD 23294·DEBRIS·🇷🇺 Russia

Lanciato Dec 24, 1985 da Baikonur Cosmodrome

Loading…

Prossimi Passaggi (prossime 24 ore)

TLE

In scadenzaSource: Space-Track

Epoca: Sep 2, 2026, 09:36 UTC

1 23294U 85118R   26245.40033139  .00001101  00000-0  13127-2 0  9994
2 23294  65.1069 358.5931 5446265  33.4658   8.4982  4.73729364 43489

Traccia SL-12 DEB in tempo reale con AllMySat

Download on the App Store